Wind_Speed
22 24 24 24 24 23 22 21 21 19 16 15 14 15 15 15 15 14 14 13 12 11 10 10 12 14 15 15 14 12 11 10 9 8 8 8 8 8 8 8 8 8 7 7 6 5 5 5 5 6 6 7 8 9 11 12 12 11 10 9 10 11
22 23 23 23 23 22 22 22 22 20 17 16 15 15 15 15 15 15 14 13 12 11 9 10 11 12 14 14 13 11 10 9 9 9 9 9 9 9 9 8 8 8 8 7 7 6 6 6 6 7 8 8 9 9 11 12 12 11 11 10 10 11
22 22 22 22 21 22 23 23 22 20 18 17 16 15 15 16 16 15 15 14 12 11 9 10 11 12 12 13 13 11 10 10 9 9 9 9 9 9 9 9 9 9 8 7 7 7 7 7 8 8 9 9 9 9 10 12 13 12 12 11 11 11
22 21 22 21 21 22 23 23 22 19 18 17 16 15 15 16 16 16 15 14 13 11 10 10 11 11 12 12 12 12 11 11 10 10 10 10 9 9 9 9 9 8 8 7 7 7 7 7 8 8 9 10 9 9 9 11 13 13 13 12 12 11
21 21 21 21 22 23 23 22 20 18 18 17 15 15 16 17 17 17 16 14 13 12 11 11 11 11 11 12 12 12 12 12 11 10 10 10 9 9 8 8 8 8 8 8 8 8 8 8 9 9 9 10 10 10 9 9 11 13 13 13 12 12
22 23 22 21 23 22 21 19 17 17 17 16 15 16 16 17 18 17 16 14 13 12 12 11 11 11 11 12 12 12 12 12 11 11 10 9 8 8 8 8 8 9 9 9 9 9 9 10 10 10 10 10 10 11 10 10 11 12 12 13 13 13
24 26 26 24 23 21 18 16 16 16 15 15 15 16 17 18 18 17 16 15 13 12 12 12 12 12 12 12 12 11 11 11 10 10 9 8 8 8 9 9 10 10 10 10 10 10 10 10 11 11 11 11 12 12 12 12 11 11 12 13 14 14
27 30 29 28 25 22 19 16 15 14 14 15 16 17 18 18 18 16 16 15 14 13 12 12 12 12 12 12 11 11 11 10 9 8 8 8 8 9 10 10 10 10 10 10 10 10 10 11 12 13 13 12 12 13 13 13 12 12 13 14 15 16
28 28 27 27 26 23 21 17 15 15 15 16 17 17 18 18 17 16 16 16 15 13 13 13 13 13 13 12 12 11 10 9 8 7 7 7 7 7 8 8 9 9 10 10 10 10 10 11 13 14 14 13 13 13 13 13 14 14 14 15 15 16
18 17 18 20 21 20 19 16 16 17 17 17 17 17 17 17 17 15 15 15 15 14 13 13 13 13 13 13 12 11 11 10 9 7 6 6 6 6 6 7 7 8 8 9 9 10 11 11 12 14 15 14 13 13 13 13 14 15 15 15 16 16
17 17 17 16 18 19 17 15 16 17 18 18 18 18 18 18 17 15 15 15 14 14 14 14 13 13 13 13 12 12 12 11 9 7 6 6 6 5 6 6 6 7 8 9 10 10 11 11 11 13 14 14 14 14 14 13 14 15 16 16 17 17
21 22 20 18 20 21 18 15 15 17 19 20 19 19 18 18 17 16 15 15 14 14 13 14 14 14 14 13 13 13 12 11 10 8 7 7 6 6 6 7 7 8 9 10 11 12 12 12 12 13 13 14 14 15 15 14 14 15 15 16 17 17
20 20 20 19 20 23 21 17 15 17 20 20 20 19 18 17 17 16 15 15 15 14 14 14 15 16 15 14 14 13 12 12 11 10 9 8 8 8 8 8 9 9 10 11 12 13 13 13 13 13 14 15 15 16 16 16 16 15 15 16 17 17
18 19 19 18 17 20 21 18 15 17 19 20 20 19 18 18 17 16 16 15 15 15 16 16 17 17 16 16 15 14 14 14 13 11 10 11 11 10 10 10 10 11 11 12 13 14 15 15 14 15 15 16 17 17 18 18 18 18 18 18 18 19
19 18 19 17 16 16 17 17 17 18 19 19 19 18 18 18 17 16 16 16 16 17 18 18 18 17 17 17 15 15 16 16 15 13 12 13 13 12 12 12 11 12 13 13 14 15 16 16 16 16 16 17 18 18 19 20 21 21 21 21 21 21
19 19 19 18 17 17 16 17 18 19 19 19 18 18 17 17 17 16 16 17 18 17 17 18 19 18 18 18 16 17 17 16 15 14 13 14 13 13 13 12 12 12 13 14 15 16 17 17 17 17 17 18 18 19 20 21 22 22 22 23 23 24
19 20 20 19 19 20 19 17 17 19 19 19 18 17 17 16 16 16 16 17 18 17 16 17 19 18 18 18 17 18 17 16 14 14 13 13 13 13 13 12 12 12 13 14 15 16 17 18 17 17 18 18 19 20 20 21 23 23 24 24 25 25
19 20 21 20 18 18 18 17 16 17 18 18 18 17 16 16 16 16 16 15 17 17 17 17 19 19 19 18 19 19 17 15 14 14 13 13 13 13 13 12 12 13 14 15 16 17 18 18 18 18 18 19 20 21 22 23 24 25 26 26 26 27
19 19 19 18 17 16 17 18 18 18 19 19 18 16 16 15 16 16 16 15 16 18 18 18 18 19 19 19 19 18 16 15 14 14 13 13 13 13 13 12 12 14 15 16 17 18 19 20 20 20 20 21 22 23 23 24 25 26 27 27 27 28
18 18 17 17 17 17 18 19 19 19 19 19 17 16 15 15 16 16 16 16 16 17 18 18 18 18 19 18 17 15 15 15 14 14 14 13 13 13 13 13 13 14 16 17 18 19 21 21 21 21 21 22 23 24 25 26 27 27 28 28 28 28
18 18 18 17 18 19 19 19 19 19 20 18 17 16 15 15 16 17 17 17 17 17 17 17 18 18 17 16 15 15 15 14 14 14 14 14 13 14 14 14 14 14 16 18 20 21 22 22 23 22 22 22 24 25 26 27 27 28 28 28 28 28
18 18 18 18 19 20 20 20 20 21 20 18 17 16 15 16 17 18 17 17 17 17 16 17 17 16 15 15 15 15 15 14 14 14 14 14 15 15 15 15 15 15 17 19 21 22 22 22 23 23 23 24 24 25 26 27 28 28 28 28 29 29
18 19 19 19 19 20 21 21 21 21 20 18 17 15 15 16 17 17 16 16 16 15 15 15 14 14 14 14 15 15 14 14 15 14 14 15 16 17 16 16 16 17 19 20 21 22 22 22 22 23 24 25 26 27 27 27 28 28 27 27 28 29
18 18 19 19 19 20 20 20 19 19 18 16 15 15 15 15 15 15 15 15 15 15 15 15 13 14 14 14 14 15 15 15 15 15 15 16 17 17 17 17 18 19 20 21 21 22 22 23 23 24 24 25 25 26 28 28 29 29 29 28 28 29
17 17 18 19 19 21 20 19 17 16 15 15 15 15 14 14 13 14 14 14 15 16 16 16 15 15 15 15 15 15 15 15 15 16 17 17 17 17 17 18 20 21 22 22 22 22 22 23 24 25 25 26 25 25 27 28 29 30 31 31 31 32
17 18 20 20 21 21 20 18 16 15 15 15 15 14 13 13 13 13 13 13 14 15 16 16 16 16 15 16 16 16 16 16 16 16 16 17 17 17 18 20 22 23 23 23 23 23 22 22 23 24 25 26 26 27 27 28 29 30 31 32 33 34
18 20 21 20 19 19 18 17 16 16 16 16 14 12 12 13 14 13 13 13 13 14 15 16 16 16 16 17 17 16 16 16 16 16 17 18 18 19 20 21 23 24 24 24 25 25 24 25 25 25 26 27 28 28 29 29 30 31 31 32 33 35
19 21 21 18 16 17 16 14 15 16 15 14 13 12 12 14 14 14 15 14 13 12 13 14 15 16 16 16 16 16 16 16 17 17 18 19 20 21 22 23 24 24 25 25 25 26 27 27 28 29 30 31 31 31 31 32 32 33 33 32 32 33
18 19 19 17 15 16 16 14 13 13 14 14 13 13 13 14 14 15 16 14 13 12 13 13 14 15 16 16 16 16 17 18 18 19 20 21 21 22 22 23 24 25 25 25 26 27 28 29 31 32 33 35 35 35 35 36 36 36 36 35 34 34
18 18 18 17 16 15 14 13 13 13 13 13 13 14 16 16 16 15 14 13 12 12 12 13 15 16 16 16 16 17 18 19 19 20 21 22 22 22 23 23 24 25 25 26 27 29 30 31 33 34 36 37 38 38 39 39 39 39 39 40 39 38
17 17 16 16 16 15 13 12 13 13 13 13 14 16 16 16 15 14 12 11 11 12 13 14 15 16 16 16 17 18 19 20 20 21 22 23 23 23 23 23 24 25 27 28 29 31 33 34 36 38 39 39 40 40 41 41 41 41 41 42 41 40
17 16 15 15 15 15 14 15 15 15 15 15 15 15 15 14 13 11 10 10 11 12 13 15 15 16 16 17 18 18 19 20 21 22 22 23 23 23 23 25 26 27 29 30 32 34 36 37 39 40 41 41 42 43 43 44 44 44 43 43 42 40
17 15 14 15 15 15 16 16 16 16 16 15 14 14 14 13 12 10 9 10 11 13 13 14 15 16 17 18 19 20 20 21 21 22 22 22 23 24 25 27 28 29 31 32 34 36 38 40 41 42 43 44 45 45 45 46 46 45 44 43 41 40
16 15 14 14 15 16 16 17 16 15 14 14 14 13 11 11 10 9 9 10 11 12 13 14 16 17 18 19 20 21 21 21 21 22 22 23 25 26 27 28 29 31 33 34 36 38 40 42 42 43 44 45 46 46 46 45 45 44 43 42 41 40
16 16 16 16 16 16 17 16 14 13 13 13 12 10 9 10 10 10 10 10 11 12 14 16 17 18 19 20 21 21 21 21 21 22 24 26 27 28 29 30 31 32 34 36 38 40 42 42 43 44 45 45 45 45 44 43 42 42 41 41 41 41
17 16 17 17 16 16 17 16 14 12 12 12 10 9 9 10 10 11 11 11 12 14 15 17 18 19 20 20 20 20 20 21 23 24 26 28 28 29 30 31 32 34 36 38 40 42 42 43 44 44 45 44 44 43 42 41 41 41 42 42 42 43
15 16 16 16 16 15 15 15 13 12 11 10 9 9 9 10 11 12 12 13 14 15 16 18 19 19 19 18 18 19 21 23 25 26 28 29 29 30 31 32 34 36 38 40 41 42 43 43 44 44 44 43 42 42 41 42 42 43 44 44 44 44
Wind_Direction
266 269 273 274 274 276 276 275 274 273 270 263 259 261 265 269 275 280 285 291 297 305 316 325 331 332 331 332 335 336 337 337 336 335 334 333 331 328 325 324 325 326 327 328 330 334 339 339 340 339 339 338 332 326 323 322 325 327 328 326 324 323
263 266 270 272 273 274 273 272 271 271 267 261 258 260 264 269 273 278 281 286 293 303 311 319 326 330 329 330 333 335 335 334 332 330 330 329 327 326 324 324 324 323 324 322 323 326 329 328 328 327 327 327 327 324 319 318 322 325 327 326 323 321
263 266 267 269 270 270 270 269 270 270 267 262 261 263 265 269 273 275 278 284 293 302 306 313 321 325 327 328 331 333 332 329 328 328 326 326 325 324 325 324 323 323 322 319 319 321 323 323 320 319 318 318 320 320 316 314 318 323 324 324 323 320
267 267 266 266 266 265 265 267 269 269 266 264 264 265 266 269 272 274 277 284 294 300 302 307 314 319 322 326 330 330 328 326 326 326 324 323 323 324 325 324 322 322 322 320 320 323 324 323 319 317 317 318 321 322 317 313 316 321 323 324 322 318
266 265 265 265 263 262 262 264 267 266 264 265 266 266 267 269 272 274 279 286 294 298 297 300 307 311 315 324 329 327 325 325 325 325 323 323 323 325 326 324 323 323 323 322 324 326 326 324 321 320 320 323 326 327 327 323 321 324 325 324 323 321
262 261 260 261 262 261 262 264 264 263 264 267 267 266 267 269 272 275 280 285 289 292 293 295 299 302 309 320 328 326 325 324 324 325 325 325 325 325 325 323 322 322 321 319 320 323 323 324 323 324 326 328 330 331 335 335 332 330 328 327 328 328
269 265 259 254 258 261 263 267 265 263 265 265 263 264 266 269 273 278 283 283 284 288 290 291 292 295 303 316 324 324 324 323 322 324 325 326 326 325 324 322 322 320 317 315 315 318 322 323 324 326 330 331 332 334 337 339 338 336 332 331 332 333
277 272 265 256 255 261 264 268 269 267 263 260 261 263 266 271 276 282 285 284 284 287 288 287 287 289 297 309 317 319 322 322 320 321 322 323 323 323 323 323 324 322 320 317 316 319 323 324 325 327 330 331 332 334 337 339 340 339 336 335 335 335
278 269 267 258 255 260 260 264 267 265 261 260 262 263 267 273 278 282 283 284 286 286 286 284 282 283 290 301 309 315 318 318 315 316 318 320 320 322 324 325 327 328 328 326 322 323 325 325 325 326 327 329 330 333 335 337 338 338 337 336 335 334
280 269 273 258 251 254 251 254 261 262 263 263 263 263 266 270 274 277 278 282 285 286 286 283 280 280 285 295 305 310 311 310 307 312 317 319 323 326 328 328 330 332 331 327 323 322 322 322 322 321 322 324 327 329 331 333 333 334 334 334 332 331
274 280 286 264 249 249 244 246 255 261 262 261 262 261 263 266 269 271 274 278 281 285 286 285 281 278 282 292 301 303 304 304 304 308 313 314 321 327 330 331 333 334 332 327 324 324 324 322 319 316 316 318 322 324 326 329 329 330 330 329 328 326
273 277 278 267 256 250 242 240 250 258 261 261 262 262 264 266 268 269 271 275 278 282 284 284 279 275 280 286 290 294 296 298 295 294 297 301 311 321 327 330 332 335 334 331 328 326 325 322 318 313 312 313 316 318 320 322 323 323 322 321 319 319
276 271 269 267 260 251 242 237 244 255 261 263 264 265 265 265 266 267 269 272 276 279 280 278 275 275 279 281 283 287 290 291 286 282 287 294 303 310 314 318 322 326 327 324 322 320 317 313 311 308 308 309 310 312 313 313 313 312 310 309 308 308
275 269 267 265 259 253 245 238 241 252 260 264 266 267 266 264 265 266 268 270 273 275 275 274 273 275 276 277 280 282 287 286 280 280 286 291 296 300 303 308 313 317 318 317 314 311 307 305 305 304 304 305 307 308 309 308 307 307 305 304 304 303
269 266 264 261 255 253 250 247 245 250 259 263 265 266 265 264 265 267 269 271 272 272 273 273 271 272 271 271 274 280 285 282 275 278 283 284 286 291 298 303 309 313 313 312 309 305 302 301 301 302 302 303 305 306 306 306 305 304 304 304 304 303
268 264 261 259 253 249 254 256 248 248 256 260 262 263 264 265 266 269 270 271 272 273 272 270 267 266 266 267 271 277 279 273 269 273 277 279 281 286 294 300 306 310 309 307 304 301 299 298 299 301 302 303 305 305 305 304 302 302 302 303 303 302
273 266 261 263 259 251 253 258 250 247 252 256 258 260 262 265 267 270 271 271 272 272 271 267 262 259 260 263 267 272 272 266 265 267 270 276 281 285 291 298 304 306 304 302 300 297 296 297 299 302 303 304 304 304 303 302 301 301 301 302 302 302
273 265 262 264 262 253 254 259 257 253 253 254 255 257 260 264 267 270 273 274 271 269 267 264 259 255 255 257 263 269 267 263 262 261 264 274 279 283 289 296 302 302 300 298 296 295 296 298 300 302 304 305 304 304 303 302 302 302 303 303 303 303
268 262 260 259 255 254 258 263 264 262 260 257 256 257 259 263 266 269 272 274 270 264 261 259 256 252 250 254 261 265 262 260 261 261 265 274 277 282 287 293 296 296 295 295 295 296 297 299 300 303 305 306 306 305 305 305 304 303 303 303 303 303
262 259 258 254 251 256 261 265 266 263 260 259 257 256 258 262 265 267 269 270 267 262 256 253 251 249 250 253 255 254 253 257 261 263 267 273 276 280 284 287 289 290 292 294 295 296 297 299 300 304 306 307 307 307 306 306 304 303 303 302 302 303
260 258 257 256 255 258 262 265 264 260 259 258 256 255 259 261 263 265 266 267 266 259 251 247 246 248 249 249 246 245 250 258 262 263 267 271 275 277 278 281 285 288 291 294 295 295 296 299 302 305 307 307 307 306 305 304 302 301 301 302 302 302
261 260 261 262 261 262 266 267 263 258 257 256 254 258 262 262 261 262 263 264 262 254 248 244 244 243 241 238 238 242 250 258 260 262 266 271 273 275 277 282 288 291 293 293 292 294 296 300 303 306 307 307 305 303 301 300 299 299 300 302 302 302
264 265 266 266 265 265 268 271 268 258 251 251 256 263 263 260 258 258 259 257 253 248 242 237 236 234 231 232 236 242 250 255 258 262 266 269 272 275 282 288 293 294 292 291 291 294 297 300 303 304 305 304 303 302 300 299 299 299 300 301 301 301
266 266 266 266 265 266 270 275 271 254 244 249 258 262 259 253 251 251 252 248 242 238 230 224 228 231 232 237 242 245 250 254 258 263 265 268 272 280 288 293 294 292 290 290 292 295 298 301 303 303 302 301 300 300 300 301 302 303 304 303 301 300
264 262 262 263 263 265 268 272 265 246 238 249 258 258 251 245 243 243 242 238 235 229 222 223 231 234 238 243 245 247 251 254 258 262 266 271 279 287 292 293 291 289 289 290 293 295 298 300 302 302 303 302 300 299 299 301 302 303 305 305 304 302
259 256 256 258 261 261 261 260 253 240 239 249 254 251 243 238 239 238 233 230 227 221 220 226 232 235 240 245 246 248 252 256 260 265 272 279 285 288 290 289 289 290 291 294 296 298 300 300 300 300 301 301 302 301 300 301 301 300 301 302 301 301
252 250 251 256 260 256 252 251 245 240 243 247 245 237 229 229 233 231 220 215 212 210 215 223 230 237 242 245 247 252 258 263 268 273 278 282 284 287 288 288 288 290 294 298 303 306 307 307 306 304 302 301 301 301 301 301 300 299 298 298 298 298
250 255 255 255 257 251 248 249 243 239 241 240 231 220 217 221 222 212 202 202 207 210 216 223 231 238 241 246 252 259 265 270 273 277 279 281 284 287 288 288 290 294 299 303 307 310 310 310 309 308 307 307 306 306 305 304 302 300 299 298 298 297
255 266 261 249 251 252 250 248 239 234 233 227 215 206 205 205 200 194 195 206 215 218 219 226 232 237 241 248 255 262 267 270 274 278 280 283 285 287 288 291 294 299 303 307 309 310 310 310 310 310 310 311 312 312 311 310 308 307 305 304 303 302
258 270 261 248 250 251 247 242 234 231 225 211 196 188 185 184 188 197 207 215 219 219 222 228 233 237 242 249 255 261 266 271 277 280 282 284 286 288 291 294 298 302 306 308 310 310 310 311 311 311 312 314 314 314 313 311 310 309 308 308 307 307
259 264 257 251 252 245 238 234 229 224 213 193 178 177 180 187 202 216 222 222 221 222 225 230 236 241 247 252 258 263 268 274 279 281 284 286 288 292 295 298 302 305 308 310 311 311 312 313 313 313 314 314 314 313 312 311 310 309 308 308 308 308
259 258 253 253 250 240 234 231 222 208 193 182 178 185 197 210 224 231 230 227 225 227 230 234 242 248 254 259 263 268 272 277 280 282 285 288 292 296 300 303 306 309 311 312 312 313 314 314 314 314 314 313 313 312 311 311 310 309 309 309 309 309
256 254 252 249 238 231 231 222 205 191 187 190 196 204 214 224 231 233 231 230 229 232 237 243 250 256 261 266 270 274 277 279 282 285 289 293 297 301 304 306 308 310 312 313 313 314 314 313 313 313 313 312 312 311 311 311 311 310 310 310 310 310
254 250 246 240 229 223 217 203 194 197 203 209 212 214 220 227 232 234 235 236 237 242 247 252 258 262 266 271 274 278 280 283 286 290 295 298 302 304 306 307 310 312 313 314 314 314 313 313 313 313 312 311 311 312 312 312 312 312 312 311 311 310
247 240 234 233 229 219 210 206 212 216 213 213 214 214 221 230 236 240 242 243 245 248 251 256 261 266 270 273 276 280 284 287 292 296 300 302 304 305 307 310 312 314 315 315 314 314 313 313 313 312 311 311 312 313 314 314 314 313 312 311 311 310
235 229 228 229 227 222 220 223 225 215 207 210 212 214 223 231 238 242 244 245 248 251 255 260 265 269 272 275 280 285 289 293 298 301 303 303 305 307 310 312 314 315 316 315 314 314 313 312 311 311 312 312 313 314 315 314 314 313 311 310 309 308
219 219 222 225 225 225 224 221 214 206 205 208 209 216 225 230 238 244 248 251 254 258 262 266 269 271 275 281 287 293 296 299 301 303 304 305 307 310 312 314 315 316 315 315 314 313 312 311 311 312 313 314 315 315 314 313 312 311 310 310 309 308
Height
5856 5856 5856 5857 5857 5857 5858 5857 5856 5856 5856 5856 5855 5855 5855 5856 5856 5856 5857 5857 5857 5857 5857 5857 5856 5855 5854 5853 5853 5851 5850 5849 5849 5848 5848 5847 5847 5847 5847 5847 5846 5846 5845 5845 5845 5844 5843 5843 5842 5842 5841 5840 5839 5838 5836 5835 5834 5834 5833 5832 5831 5830
5853 5854 5854 5855 5855 5856 5856 5855 5855 5855 5855 5855 5854 5854 5854 5855 5855 5855 5855 5856 5856 5856 5856 5856 5856 5855 5854 5853 5852 5851 5850 5849 5848 5848 5847 5847 5846 5846 5846 5846 5846 5846 5845 5845 5844 5844 5843 5843 5842 5842 5841 5840 5839 5837 5836 5835 5834 5833 5833 5832 5831 5830
5850 5851 5851 5852 5853 5854 5854 5853 5854 5854 5854 5854 5854 5854 5854 5854 5854 5854 5854 5855 5856 5856 5856 5855 5855 5855 5854 5853 5852 5851 5850 5849 5848 5847 5847 5846 5846 5846 5846 5846 5845 5845 5845 5844 5844 5844 5843 5843 5842 5841 5841 5840 5839 5837 5836 5834 5834 5833 5832 5831 5830 5830
5849 5849 5850 5850 5851 5851 5851 5851 5852 5853 5854 5854 5854 5854 5853 5853 5853 5853 5854 5855 5855 5855 5855 5855 5855 5854 5854 5853 5852 5850 5849 5849 5848 5847 5846 5846 5846 5845 5845 5845 5845 5844 5844 5844 5843 5843 5842 5842 5841 5840 5840 5839 5838 5837 5836 5834 5833 5832 5831 5831 5830 5829
5848 5848 5848 5849 5849 5848 5848 5849 5851 5852 5852 5853 5853 5853 5853 5852 5852 5852 5853 5854 5854 5855 5854 5854 5854 5853 5853 5852 5851 5850 5849 5848 5847 5847 5846 5846 5845 5845 5845 5844 5844 5844 5843 5843 5842 5842 5842 5841 5840 5840 5839 5838 5838 5837 5836 5835 5834 5832 5831 5830 5829 5828
5846 5847 5847 5847 5847 5847 5847 5849 5850 5850 5851 5852 5852 5852 5852 5851 5851 5851 5852 5853 5853 5853 5853 5853 5853 5853 5852 5852 5851 5850 5849 5848 5847 5846 5846 5845 5845 5844 5844 5844 5843 5843 5843 5842 5842 5841 5841 5840 5840 5839 5838 5838 5837 5836 5835 5834 5833 5832 5831 5830 5829 5827
5846 5845 5846 5846 5845 5846 5847 5848 5849 5849 5850 5851 5851 5851 5851 5850 5850 5851 5851 5851 5851 5852 5852 5852 5852 5852 5851 5851 5851 5850 5849 5848 5846 5846 5845 5844 5844 5844 5843 5843 5843 5842 5842 5841 5841 5841 5840 5840 5839 5838 5838 5837 5836 5835 5834 5833 5832 5832 5830 5829 5828 5827
5844 5844 5844 5845 5845 5846 5847 5848 5848 5848 5849 5849 5849 5850 5850 5850 5849 5850 5850 5850 5850 5850 5850 5850 5851 5851 5851 5850 5850 5849 5848 5847 5846 5845 5845 5844 5844 5843 5842 5842 5842 5841 5841 5840 5840 5840 5839 5838 5837 5837 5837 5836 5835 5834 5833 5832 5831 5831 5830 5829 5827 5826
5841 5841 5843 5843 5844 5846 5846 5847 5847 5847 5847 5848 5848 5849 5849 5849 5848 5849 5849 5848 5848 5849 5849 5849 5849 5850 5850 5849 5849 5848 5847 5847 5846 5845 5845 5844 5843 5843 5842 5841 5841 5840 5840 5839 5839 5838 5838 5837 5836 5835 5835 5835 5834 5833 5833 5832 5831 5830 5829 5828 5827 5826
5838 5840 5841 5842 5843 5844 5844 5845 5845 5846 5846 5846 5847 5847 5848 5848 5847 5847 5847 5846 5846 5847 5847 5848 5848 5848 5848 5848 5848 5847 5846 5846 5845 5845 5844 5844 5843 5842 5841 5841 5840 5840 5839 5839 5838 5838 5837 5836 5835 5834 5834 5834 5833 5832 5832 5831 5830 5828 5827 5826 5825 5824
5837 5839 5840 5841 5842 5842 5842 5842 5843 5844 5845 5845 5845 5846 5846 5846 5846 5845 5845 5844 5844 5845 5845 5846 5846 5846 5846 5846 5846 5846 5845 5845 5845 5844 5843 5843 5842 5841 5841 5840 5840 5839 5839 5839 5838 5837 5836 5836 5835 5834 5834 5833 5832 5831 5830 5830 5829 5827 5826 5825 5824 5823
5836 5837 5838 5840 5840 5840 5839 5839 5841 5842 5843 5843 5843 5844 5845 5845 5844 5844 5843 5843 5843 5843 5844 5844 5844 5844 5844 5844 5845 5844 5844 5844 5844 5843 5843 5842 5841 5840 5840 5839 5839 5838 5838 5837 5837 5836 5835 5835 5835 5834 5833 5832 5831 5830 5829 5828 5827 5827 5825 5824 5823 5822
5833 5835 5836 5837 5837 5837 5837 5837 5839 5840 5841 5842 5842 5843 5843 5843 5843 5842 5841 5841 5841 5842 5842 5842 5842 5842 5842 5842 5842 5842 5842 5842 5842 5842 5841 5841 5840 5839 5839 5838 5838 5837 5837 5836 5836 5835 5835 5835 5834 5834 5832 5831 5830 5829 5828 5827 5826 5826 5825 5824 5823 5821
5831 5832 5833 5834 5834 5835 5835 5836 5838 5839 5839 5840 5841 5841 5841 5841 5840 5840 5840 5839 5839 5840 5840 5840 5840 5840 5840 5840 5840 5840 5840 5840 5840 5839 5839 5839 5839 5838 5838 5837 5837 5836 5836 5835 5835 5835 5835 5834 5834 5833 5831 5830 5829 5827 5826 5825 5824 5823 5823 5822 5821 5819
5828 5829 5831 5832 5832 5832 5833 5835 5836 5837 5837 5838 5839 5839 5839 5838 5838 5838 5837 5837 5837 5837 5838 5838 5838 5839 5839 5838 5838 5838 5838 5838 5838 5837 5837 5837 5837 5837 5836 5836 5836 5835 5834 5834 5834 5834 5834 5833 5832 5832 5830 5829 5827 5826 5824 5823 5822 5821 5820 5819 5818 5817
5826 5827 5828 5829 5830 5831 5832 5833 5833 5834 5835 5836 5836 5836 5836 5836 5835 5835 5835 5835 5835 5835 5836 5836 5837 5837 5837 5837 5837 5836 5836 5836 5836 5836 5836 5836 5836 5835 5835 5835 5835 5834 5833 5832 5832 5833 5832 5832 5831 5830 5829 5827 5825 5824 5823 5821 5820 5819 5818 5817 5815 5814
5824 5825 5826 5827 5828 5829 5830 5831 5831 5831 5832 5833 5833 5833 5833 5833 5833 5833 5833 5833 5833 5833 5834 5834 5835 5835 5835 5835 5835 5835 5835 5835 5834 5834 5834 5834 5834 5834 5834 5834 5833 5832 5831 5831 5831 5831 5830 5829 5829 5828 5827 5825 5823 5822 5820 5819 5818 5817 5815 5814 5813 5811
5822 5823 5823 5824 5825 5826 5827 5828 5828 5829 5829 5830 5830 5830 5830 5830 5830 5830 5830 5830 5830 5831 5831 5832 5832 5833 5833 5833 5833 5834 5834 5834 5833 5833 5832 5832 5832 5832 5832 5832 5831 5830 5830 5829 5829 5829 5828 5827 5827 5826 5824 5823 5821 5819 5818 5817 5816 5814 5813 5812 5810 5809
5820 5820 5821 5821 5823 5824 5825 5825 5826 5826 5826 5826 5826 5826 5826 5827 5827 5828 5828 5828 5828 5828 5828 5829 5830 5830 5831 5831 5832 5832 5832 5833 5832 5832 5831 5831 5831 5831 5830 5830 5830 5829 5828 5828 5827 5826 5825 5825 5824 5823 5822 5820 5818 5817 5816 5814 5813 5812 5810 5809 5808 5807
5818 5818 5818 5819 5821 5822 5822 5823 5823 5823 5823 5823 5823 5823 5824 5825 5825 5826 5826 5826 5825 5825 5826 5827 5827 5828 5829 5829 5830 5831 5831 5831 5831 5831 5830 5830 5829 5829 5829 5829 5828 5827 5826 5826 5825 5824 5823 5822 5822 5821 5819 5817 5816 5814 5813 5812 5810 5809 5808 5807 5805 5804
5815 5816 5817 5817 5818 5819 5820 5820 5820 5820 5820 5821 5821 5821 5822 5823 5823 5823 5823 5823 5823 5823 5824 5825 5825 5826 5827 5827 5828 5829 5829 5829 5829 5829 5829 5828 5828 5828 5827 5827 5826 5826 5825 5824 5823 5822 5822 5820 5819 5818 5816 5815 5814 5812 5810 5809 5808 5806 5805 5804 5802 5801
5813 5814 5814 5815 5816 5816 5816 5817 5817 5817 5818 5819 5819 5819 5820 5820 5820 5820 5821 5820 5820 5821 5822 5823 5824 5824 5825 5825 5826 5827 5827 5828 5828 5828 5827 5827 5826 5826 5826 5825 5824 5824 5823 5823 5822 5821 5820 5818 5816 5815 5813 5812 5811 5810 5809 5807 5805 5804 5803 5801 5799 5797
5811 5812 5812 5812 5813 5813 5813 5813 5813 5814 5815 5816 5816 5817 5817 5817 5817 5818 5818 5818 5818 5819 5820 5821 5822 5823 5823 5824 5824 5825 5826 5826 5826 5826 5825 5825 5825 5824 5823 5822 5822 5821 5822 5821 5820 5819 5817 5816 5814 5813 5811 5810 5809 5807 5806 5804 5803 5801 5800 5799 5796 5794
5809 5809 5810 5810 5810 5810 5810 5810 5810 5810 5811 5813 5813 5814 5814 5814 5815 5815 5815 5816 5816 5817 5818 5820 5821 5821 5822 5822 5823 5824 5824 5825 5825 5824 5824 5823 5823 5822 5820 5820 5820 5820 5820 5820 5818 5817 5815 5813 5811 5810 5809 5808 5807 5805 5803 5801 5799 5797 5796 5795 5793 5791
5807 5807 5808 5808 5807 5807 5807 5807 5807 5808 5809 5810 5811 5811 5811 5812 5812 5813 5813 5814 5814 5816 5817 5818 5819 5820 5821 5821 5822 5822 5823 5823 5823 5823 5822 5821 5820 5819 5818 5818 5818 5818 5818 5817 5816 5814 5812 5811 5809 5807 5806 5805 5804 5803 5801 5798 5796 5793 5791 5790 5788 5786
5804 5805 5804 5804 5804 5804 5804 5804 5805 5806 5807 5808 5808 5808 5809 5810 5811 5811 5812 5812 5813 5814 5815 5816 5817 5819 5820 5820 5821 5821 5821 5821 5821 5821 5820 5819 5818 5817 5817 5817 5817 5816 5815 5813 5812 5811 5810 5809 5807 5806 5804 5802 5801 5799 5798 5796 5794 5791 5789 5787 5785 5783
5801 5800 5800 5801 5802 5801 5801 5802 5803 5804 5805 5805 5806 5806 5807 5808 5809 5810 5810 5811 5811 5812 5813 5815 5816 5817 5818 5819 5819 5820 5819 5819 5819 5819 5818 5817 5816 5816 5816 5815 5814 5813 5811 5810 5808 5807 5806 5805 5803 5802 5801 5799 5798 5796 5794 5793 5791 5789 5787 5784 5782 5780
5798 5798 5799 5800 5801 5800 5800 5801 5801 5802 5802 5803 5803 5804 5805 5807 5807 5808 5809 5810 5811 5812 5813 5814 5815 5816 5817 5818 5818 5817 5817 5817 5817 5816 5815 5815 5814 5814 5814 5813 5812 5810 5808 5807 5805 5803 5802 5800 5799 5797 5796 5795 5793 5792 5790 5788 5786 5784 5783 5781 5779 5776
5797 5797 5799 5800 5801 5800 5800 5800 5800 5800 5801 5801 5802 5803 5804 5805 5806 5807 5809 5810 5810 5811 5812 5813 5814 5815 5815 5816 5816 5815 5815 5815 5815 5814 5814 5813 5813 5813 5812 5810 5809 5807 5806 5804 5802 5800 5799 5797 5795 5793 5792 5790 5788 5787 5785 5783 5780 5778 5777 5775 5774 5771
5796 5796 5797 5799 5799 5799 5799 5798 5798 5798 5799 5800 5801 5802 5803 5804 5805 5806 5808 5809 5810 5810 5811 5812 5812 5813 5814 5814 5814 5814 5814 5813 5813 5812 5812 5811 5811 5811 5810 5808 5806 5805 5803 5801 5799 5797 5795 5794 5792 5790 5788 5786 5784 5782 5780 5778 5775 5773 5771 5769 5767 5765
5794 5795 5796 5797 5797 5797 5797 5797 5796 5797 5798 5799 5800 5801 5802 5803 5804 5806 5807 5808 5809 5809 5810 5811 5811 5812 5812 5812 5812 5812 5812 5812 5811 5811 5810 5810 5809 5808 5807 5805 5803 5801 5799 5797 5795 5794 5792 5790 5788 5786 5784 5782 5780 5778 5776 5774 5772 5769 5767 5765 5762 5760
5793 5794 5794 5795 5795 5795 5796 5796 5795 5796 5798 5799 5800 5801 5802 5803 5803 5805 5806 5807 5808 5809 5809 5810 5810 5810 5810 5811 5811 5811 5810 5810 5810 5809 5808 5808 5807 5805 5804 5802 5800 5797 5795 5793 5792 5790 5788 5786 5784 5782 5781 5778 5776 5774 5772 5770 5768 5765 5763 5761 5758 5756
5791 5792 5792 5793 5793 5794 5794 5795 5795 5795 5797 5798 5799 5800 5801 5802 5802 5803 5805 5806 5807 5808 5808 5808 5809 5809 5809 5809 5809 5809 5809 5808 5808 5807 5806 5805 5804 5802 5800 5798 5796 5793 5791 5790 5788 5786 5785 5783 5781 5779 5777 5774 5772 5770 5767 5765 5763 5760 5758 5756 5754 5751
5790 5790 5791 5792 5793 5793 5793 5793 5794 5795 5796 5796 5798 5799 5800 5800 5801 5802 5803 5805 5806 5806 5807 5807 5807 5808 5808 5808 5807 5807 5807 5806 5806 5805 5804 5802 5800 5799 5796 5794 5792 5790 5788 5786 5785 5783 5781 5779 5777 5775 5772 5770 5767 5765 5763 5760 5758 5756 5753 5751 5749 5747
5788 5789 5790 5791 5792 5792 5792 5792 5793 5794 5795 5795 5797 5798 5798 5799 5800 5801 5802 5804 5805 5805 5805 5806 5806 5806 5806 5806 5806 5805 5805 5804 5803 5802 5800 5799 5797 5795 5793 5790 5788 5786 5785 5783 5782 5780 5778 5775 5773 5770 5768 5765 5763 5761 5758 5756 5753 5751 5749 5747 5745 5743
5786 5787 5789 5789 5790 5790 5790 5791 5792 5793 5793 5794 5795 5796 5797 5798 5799 5800 5801 5802 5803 5803 5804 5804 5804 5804 5804 5804 5803 5803 5802 5801 5800 5798 5797 5795 5793 5791 5789 5787 5785 5783 5782 5780 5779 5777 5774 5771 5769 5766 5764 5761 5759 5756 5754 5752 5749 5747 5745 5743 5740 5738
5784 5785 5786 5787 5788 5788 5789 5789 5790 5791 5792 5793 5793 5794 5796 5797 5798 5799 5800 5801 5801 5801 5802 5801 5801 5802 5802 5801 5801 5800 5799 5798 5797 5795 5794 5792 5790 5788 5785 5783 5782 5780 5779 5777 5775 5773 5770 5767 5764 5762 5759 5757 5754 5752 5750 5748 5745 5743 5740 5738 5735 5733